[[{"header":{"parameterUnit":"m.s-1","parameterCategory":2,"la1":30.2991,"la2":30.254,"lo1":-89.0895,"lo2":-89.0444,"dx":0.0017,"dy":0.0017,"nx":28,"ny":28,"refTime":"2023-01-27T15:00:00:Z","depth":"0","parameterNumber":2,"parameterNumberName":"U-component_of_CURRENTS"},"data":[0,0,0,0,0,0,0,0,0,0,0,0,0,0,0,0,0,0,0,0,0,0,0,0,0,0,0,0,0,0,0,0,0,0,0,0,0,0,0,0,0,0,0,0,0,0,0,0,0,0,0,0,0,0,0,0,0,0,-0.338,-0.3381,0,-0.3434,-0.3435,-0.3436,-0.3514,-0.3515,-0.3516,-0.3516,-0.3486,-0.3484,-0.3483,0,0,0,0,0,0,0,0,0,0,0,0,0,-0.3379,-0.3379,-0.338,-0.3381,-0.3381,-0.3434,-0.3435,-0.3436,-0.3513,-0.3515,-0.3516,-0.3517,-0.3487,-0.3485,-0.3483,0,0,0,0,0,0,0,0,0,0,0,0,0,-0.3404,-0.3379,-0.338,-0.3423,-0.3427,-0.3434,-0.3435,-0.3436,-0.3513,-0.3515,-0.3516,-0.3517,-0.3487,-0.3485,-0.3482,-0.3437,0,0,-0.3474,-0.3473,0,0,0,0,0,0,0,0,-0.3403,-0.3405,-0.3416,-0.342,-0.3424,-0.3465,-0.3423,-0.3431,-0.3513,-0.3485,-0.3516,-0.3518,-0.3467,-0.3467,-0.348,-0.3435,-0.3434,-0.3474,-0.3473,-0.3471,-0.3471,0,0,0,0,0,0,0,-0.3401,-0.3403,-0.3406,-0.3416,-0.3421,-0.3451,-0.3456,-0.3426,-0.3469,-0.3487,-0.3492,-0.3491,-0.347,-0.3483,-0.348,-0.3434,-0.3474,-0.3472,-0.347,-0.3469,-0.3449,-0.345,0,0,0,0,0,0,-0.3383,-0.3401,-0.3404,-0.3407,-0.3413,-0.3449,-0.3455,-0.3454,-0.3471,-0.3475,-0.349,-0.3494,-0.3487,-0.3483,-0.3479,-0.3468,-0.3471,-0.3469,-0.3468,-0.3448,-0.3449,-0.345,0,0,0,0,0,0,-0.3382,-0.3382,-0.3402,-0.3402,-0.3406,-0.3447,-0.3445,-0.3454,-0.3475,-0.3473,-0.3476,-0.3502,-0.3488,-0.3483,-0.3483,-0.3465,-0.3468,-0.3466,-0.3447,-0.3448,-0.345,-0.3417,0,0,0,0,0,0,-0.3382,-0.3382,-0.3367,-0.3401,-0.3405,-0.3416,-0.3443,-0.3454,-0.347,-0.3477,-0.3483,-0.3483,-0.3488,-0.3487,-0.348,-0.3462,-0.3463,-0.3445,-0.3447,-0.3449,-0.3417,-0.3417,-0.3418,0,0,0,0,0,-0.3382,-0.3373,-0.3366,-0.3366,-0.3386,-0.3415,-0.3422,-0.3458,-0.3469,-0.3482,-0.3499,-0.3483,-0.3495,-0.3485,-0.3477,-0.3457,-0.3445,-0.3447,-0.3449,-0.3417,-0.3417,-0.3418,0,0,0,0,0,0,-0.3366,-0.338,-0.3374,-0.3368,-0.3387,-0.3428,-0.3438,-0.3452,-0.3476,-0.348,-0.3484,-0.3485,-0.3491,-0.348,-0.347,-0.3465,-0.347,-0.3471,-0.3448,-0.3448,-0.3449,-0.3441,-0.3461,0,0,0,0,0,-0.3348,-0.334,-0.3364,-0.3351,-0.3367,-0.3395,-0.3406,-0.3429,-0.3454,-0.3468,-0.3474,-0.3482,-0.3491,-0.3475,-0.3492,-0.3458,-0.3412,-0.3449,-0.3449,-0.3449,-0.3442,-0.3363,-0.3354,-0.3458,-0.3458,-0.3458,0,0,-0.3339,-0.3337,-0.3335,-0.3345,-0.3366,-0.3391,-0.3409,-0.3431,-0.3447,-0.3453,-0.3476,-0.3487,-0.3493,-0.3492,-0.3489,-0.3473,-0.3394,-0.3452,-0.3451,-0.3445,-0.3364,-0.3353,-0.3344,-0.3459,-0.3459,-0.3459,0,0,-0.3323,-0.3318,-0.3317,-0.3337,-0.3356,-0.3379,-0.3383,-0.3424,-0.3444,-0.3456,-0.3479,-0.3475,-0.3482,-0.3479,-0.3478,-0.3479,-0.3418,-0.3489,-0.3449,-0.3372,-0.3361,-0.3351,-0.3259,-0.3241,-0.3463,-0.3463,-0.3463,0,-0.3294,-0.33,-0.3321,-0.3334,-0.3345,-0.3375,-0.339,-0.3417,-0.3448,-0.3445,-0.3467,-0.3469,-0.3476,-0.3448,-0.347,-0.3473,-0.3417,-0.3439,-0.3366,-0.3356,-0.3346,-0.3254,-0.3234,-0.3462,-0.3462,-0.3462,-0.3462,0,-0.3295,-0.33,-0.3308,-0.3328,-0.335,-0.3364,-0.3405,-0.3423,-0.3439,-0.3447,-0.3439,-0.3446,-0.3437,-0.3442,-0.3458,-0.3397,-0.3375,-0.3389,-0.3351,-0.3332,-0.3238,-0.3218,-0.346,-0.3461,-0.3461,-0.3461,0,0,-0.3198,-0.3287,-0.328,-0.3294,-0.3343,-0.3355,-0.3392,-0.3409,-0.3399,-0.3421,-0.3385,-0.3414,-0.3396,-0.3396,-0.3392,-0.3327,-0.3217,-0.3326,-0.3322,-0.3209,-0.3021,-0.2991,-0.2966,-0.3207,-0.3204,-0.3202,-0.2973,0,-0.3171,-0.3201,-0.3253,-0.3273,-0.3294,-0.3343,-0.3362,-0.3382,-0.3393,-0.3371,-0.3356,-0.3336,-0.3383,-0.3354,-0.3304,-0.3253,-0.3167,-0.3276,-0.3079,-0.3073,-0.3027,-0.2943,-0.2897,-0.2689,-0.2953,-0.295,-0.2948,0,-0.3123,-0.3155,-0.3182,-0.3235,-0.3246,-0.3262,-0.3273,-0.3301,-0.3297,-0.3299,-0.3274,-0.3264,-0.3199,-0.3233,-0.3095,-0.3159,-0.3091,-0.3039,-0.3029,-0.2998,-0.3006,-0.2758,-0.2643,-0.2669,-0.2917,-0.2919,-0.2921,0,-0.3018,-0.3083,-0.3097,-0.3119,-0.3197,-0.3203,-0.3237,-0.3258,-0.326,-0.3236,-0.3204,-0.315,-0.3088,-0.3016,-0.2954,-0.3004,-0.2775,-0.2823,-0.2718,-0.2714,-0.2636,-0.2631,-0.2502,-0.2693,-0.2694,-0.2694,-0.2695,0,-0.2944,-0.2943,-0.3048,-0.3055,-0.3042,-0.313,-0.3111,-0.314,-0.3153,-0.3117,-0.3145,-0.3075,-0.303,-0.292,-0.288,-0.2726,-0.2708,-0.2679,-0.2643,-0.2626,-0.2623,-0.2616,-0.2648,-0.2686,-0.2688,-0.2689,-0.2691,0,-0.2809,-0.2887,-0.2895,-0.2979,-0.2993,-0.298,-0.3044,-0.3032,-0.3068,-0.3015,-0.2999,-0.2968,-0.2833,-0.2769,-0.2614,-0.2601,-0.2438,-0.2427,-0.2407,-0.2374,-0.2341,-0.2374,-0.2147,-0.2094,-0.2261,-0.2259,-0.2257,0,-0.2743,-0.2739,-0.2807,-0.2803,-0.2834,-0.2854,-0.2862,-0.2955,-0.2957,-0.2941,-0.2889,-0.277,-0.2668,-0.2448,-0.2385,-0.2249,-0.2282,-0.2146,-0.2251,-0.2296,-0.2305,-0.2318,-0.2292,-0.2116,-0.2113,-0.2111,-0.2109,0,-0.2601,-0.2623,-0.2643,-0.2639,-0.2649,-0.2673,-0.2708,-0.2719,-0.2807,-0.2748,-0.266,-0.2577,-0.2416,-0.2272,-0.2147,-0.2079,-0.213,-0.2094,-0.2128,-0.2161,-0.2171,-0.2118,-0.2313,-0.2088,-0.209,-0.2091,-0.2093,-0.2093,-0.2469,-0.2441,-0.2469,-0.2433,-0.2467,-0.2489,-0.2481,-0.2527,-0.2503,-0.2416,-0.2422,-0.226,-0.223,-0.2054,-0.1993,-0.1935,-0.1942,-0.1926,-0.1946,-0.1944,-0.1939,-0.2091,-0.1856,-0.1856,-0.1857,-0.1858,-0.1858,0,-0.2285,-0.2276,-0.2258,-0.2252,-0.2226,-0.2302,-0.2357,-0.2331,-0.2265,-0.2167,-0.2044,-0.1993,-0.1913,-0.1917,-0.1904,-0.1843,-0.1808,-0.1797,-0.182,-0.1789,-0.1896,-0.1946,-0.1735,-0.1735,-0.1735,-0.1735,-0.1735,-0.1735,-0.2194,-0.2104,-0.2091,-0.1988,-0.2005,-0.1981,-0.1999,-0.1979,-0.1931,-0.173,-0.1648,-0.163,-0.1731,-0.1945,-0.1923,-0.184,-0.1809,-0.1721,-0.1727,-0.1871,-0.1887,-0.1902,-0.1958,-0.1753,-0.1753,-0.1591,-0.159,-0.1589]},{"header":{"parameterUnit":"m.s-1","parameterCategory":2,"la1":30.2991,"la2":30.254,"lo1":-89.0895,"lo2":-89.0444,"dx":0.0017,"dy":0.0017,"nx":28,"ny":28,"refTime":"2023-01-27T15:00:00:Z","depth":"0","parameterNumber":3,"parameterNumberName":"V-component_of_CURRENTS"},"data":[0,0,0,0,0,0,0,0,0,0,0,0,0,0,0,0,0,0,0,0,0,0,0,0,0,0,0,0,0,0,0,0,0,0,0,0,0,0,0,0,0,0,0,0,0,0,0,0,0,0,0,0,0,0,0,0,0,0,0.0011,0.0013,0,0.0191,0.0193,0.0194,0.0325,0.0326,0.0328,0.0329,0.0454,0.0456,0.0458,0,0,0,0,0,0,0,0,0,0,0,0,0,-0.0092,-0.0092,0.001,0.0013,0.0016,0.0191,0.0193,0.0195,0.0325,0.0326,0.0328,0.033,0.0453,0.0456,0.0458,0,0,0,0,0,0,0,0,0,0,0,0,0,0.0002,-0.0092,0.001,0.0105,0.0116,0.019,0.0193,0.0195,0.0324,0.0326,0.0329,0.0331,0.0453,0.0455,0.0458,0.043,0,0,0.0467,0.0468,0,0,0,0,0,0,0,0,-0.0004,0.0004,0.0089,0.0099,0.0111,0.0242,0.0203,0.0273,0.0324,0.024,0.0329,0.0332,0.0379,0.0388,0.0411,0.0435,0.0441,0.0467,0.0469,0.047,0.0471,0,0,0,0,0,0,0,-0.0011,-0.0002,0.0077,0.0091,0.0105,0.0184,0.0198,0.0217,0.029,0.0247,0.0258,0.0286,0.0385,0.0408,0.0415,0.0443,0.0467,0.047,0.0471,0.0472,0.0557,0.0558,0,0,0,0,0,0,-0.0033,-0.0009,0.0071,0.0083,0.0064,0.0184,0.0199,0.0194,0.0291,0.031,0.0284,0.0291,0.0402,0.0411,0.042,0.0447,0.047,0.0473,0.0474,0.0557,0.0558,0.0558,0,0,0,0,0,0,-0.0037,-0.0029,0.0064,0.0048,0.0066,0.0183,0.0176,0.0196,0.0226,0.032,0.0338,0.0294,0.0404,0.0416,0.0453,0.0451,0.0474,0.0477,0.0556,0.0557,0.0558,0.0466,0,0,0,0,0,0,-0.0041,-0.0033,-0.0052,0.0044,0.0066,0.0097,0.0175,0.0198,0.0242,0.0253,0.0334,0.0348,0.0407,0.0448,0.0455,0.0455,0.0479,0.0556,0.0557,0.0558,0.0468,0.0463,0.0459,0,0,0,0,0,-0.0046,-0.0075,-0.0056,-0.0045,0.0036,0.0096,0.0113,0.0203,0.0239,0.0239,0.031,0.0346,0.0461,0.045,0.0458,0.0459,0.0555,0.0556,0.0558,0.047,0.0464,0.0459,0,0,0,0,0,0,-0.0127,-0.0061,-0.0038,-0.0046,0.0013,0.012,0.0132,0.0187,0.0241,0.025,0.0337,0.0355,0.0396,0.0434,0.042,0.0492,0.0519,0.0522,0.045,0.0445,0.0441,0.0431,0.0481,0,0,0,0,0,-0.016,-0.0168,-0.0086,-0.0096,-0.0073,0.0019,0.0053,0.0109,0.018,0.0207,0.0267,0.0337,0.0404,0.0428,0.0484,0.0497,0.0554,0.0512,0.0508,0.0503,0.0505,0.0607,0.0612,0.0562,0.0562,0.0562,0,0,-0.0188,-0.0158,-0.0158,-0.0114,-0.0064,-0.0036,0.0044,0.0082,0.0116,0.0206,0.0248,0.0314,0.0406,0.0449,0.0469,0.0479,0.0541,0.0505,0.05,0.0505,0.0609,0.0614,0.0618,0.0563,0.0563,0.0563,0,0,-0.0242,-0.0233,-0.0249,-0.0212,-0.0148,-0.0091,-0.0087,0.0002,0.0051,0.0089,0.0187,0.0251,0.0318,0.0406,0.0456,0.0453,0.0516,0.0469,0.0431,0.0529,0.0534,0.0539,0.0581,0.059,0.0463,0.0462,0.0462,0,-0.0284,-0.0292,-0.0243,-0.0241,-0.0209,-0.0123,-0.0116,-0.0061,0.0031,0.0078,0.0088,0.0246,0.0307,0.0409,0.0418,0.0442,0.0492,0.0437,0.0522,0.0529,0.0535,0.0577,0.0589,0.0458,0.0459,0.0459,0.0459,0,-0.0332,-0.0338,-0.0345,-0.0319,-0.0283,-0.027,-0.018,-0.0141,-0.0086,-0.0011,0.008,0.0169,0.0277,0.0301,0.0355,0.0443,0.0458,0.0504,0.0528,0.0534,0.0578,0.0592,0.0452,0.0454,0.0455,0.0456,0,0,-0.0431,-0.039,-0.0395,-0.0381,-0.0324,-0.0291,-0.0246,-0.0159,-0.0096,-0.0037,0.0043,0.0146,0.0207,0.027,0.035,0.042,0.0491,0.0468,0.0476,0.0494,0.0673,0.0618,0.0628,0.0556,0.0559,0.0561,0.067,0,-0.0486,-0.0503,-0.0459,-0.0455,-0.0446,-0.0355,-0.0307,-0.0217,-0.0128,-0.0037,0.0066,0.0164,0.0196,0.0253,0.0325,0.0478,0.053,0.0455,0.0678,0.0683,0.0624,0.0644,0.0691,0.0787,0.0684,0.0686,0.0688,0,-0.055,-0.0545,-0.0562,-0.0494,-0.0481,-0.0464,-0.0349,-0.029,-0.0138,-0.0065,0.0039,0.0139,0.0264,0.028,0.0495,0.0448,0.0542,0.063,0.0638,0.0633,0.0656,0.0775,0.0817,0.0968,0.071,0.0708,0.0707,0,-0.0631,-0.0611,-0.0626,-0.0611,-0.053,-0.0505,-0.0451,-0.0308,-0.0219,-0.0074,0.001,0.0154,0.0259,0.0391,0.0542,0.0546,0.0752,0.0795,0.082,0.0815,0.0922,0.0922,0.1129,0.0926,0.0926,0.0926,0.0925,0,-0.0706,-0.071,-0.0668,-0.0673,-0.0652,-0.0573,-0.0503,-0.0414,-0.0264,-0.014,-0.0012,0.0108,0.03,0.044,0.0548,0.0707,0.0763,0.0813,0.0852,0.0884,0.0879,0.1069,0.1121,0.093,0.0929,0.0928,0.0927,0,-0.0785,-0.0769,-0.0769,-0.0714,-0.0694,-0.0679,-0.0547,-0.0458,-0.0328,-0.0162,-0.0112,0.0109,0.0287,0.0429,0.0658,0.0735,0.0953,0.0905,0.0883,0.0916,0.1074,0.1117,0.1305,0.1371,0.0982,0.0982,0.0981,0,-0.0826,-0.0841,-0.0813,-0.0796,-0.0777,-0.0726,-0.0653,-0.0516,-0.0395,-0.015,-0.006,0.0132,0.0277,0.0526,0.0699,0.0851,0.0952,0.0975,0.0993,0.1086,0.1166,0.1175,0.1218,0.1097,0.1097,0.1098,0.1098,0,-0.0879,-0.0879,-0.0874,-0.084,-0.0796,-0.0708,-0.0601,-0.0529,-0.0322,-0.0207,-0.0018,0.0091,0.035,0.0566,0.0744,0.0841,0.1075,0.0986,0.1148,0.1312,0.1281,0.1361,0.0974,0.1102,0.1102,0.1101,0.1101,0.1101,-0.0909,-0.0919,-0.0896,-0.085,-0.0781,-0.0653,-0.0585,-0.0468,-0.033,-0.0144,-0.0039,0.0125,0.0495,0.0763,0.0872,0.1162,0.1117,0.1275,0.1328,0.1333,0.1375,0.0932,0.1054,0.1054,0.1053,0.1053,0.1052,0,-0.0915,-0.0898,-0.0874,-0.0786,-0.0664,-0.0635,-0.0491,-0.0423,-0.0305,-0.0201,-0.0093,0.0324,0.0659,0.0981,0.1398,0.1541,0.1579,0.1602,0.1702,0.1737,0.1439,0.1423,0.1553,0.1553,0.1553,0.1552,0.1552,0.1552,-0.0912,-0.0882,-0.0852,-0.0655,-0.0579,-0.0424,-0.035,-0.0328,-0.0266,-0.0129,0.0064,0.0232,0.0794,0.1537,0.1931,0.1937,0.2089,0.2023,0.2087,0.1961,0.1937,0.1914,0.1917,0.2148,0.2149,0.24,0.2403,0.2405]}],[{"header":{"parameterUnit":"m.s-1","parameterCategory":2,"la1":30.2991,"la2":30.254,"lo1":-89.0895,"lo2":-89.0444,"dx":0.0017,"dy":0.0017,"nx":28,"ny":28,"refTime":"2023-01-27T15:00:00:Z","depth":"2","parameterNumber":2,"parameterNumberName":"U-component_of_CURRENTS"},"data":[0,0,0,0,0,0,0,0,0,0,0,0,0,0,0,0,0,0,0,0,0,0,0,0,0,0,0,0,0,0,0,0,0,0,0,0,0,0,0,0,0,0,0,0,0,0,0,0,0,0,0,0,0,0,0,0,0,0,-0.305,-0.3052,0,-0.3151,-0.3152,-0.3152,-0.3277,-0.3279,-0.3282,-0.3284,-0.3296,-0.3294,-0.3292,0,0,0,0,0,0,0,0,0,0,0,0,0,-0.2923,-0.2924,-0.305,-0.3052,-0.3054,-0.3151,-0.3152,-0.3152,-0.3276,-0.328,-0.3283,-0.3286,-0.3296,-0.3294,-0.3291,0,0,0,0,0,0,0,0,0,0,0,0,0,-0.299,-0.2924,-0.305,-0.3132,-0.3141,-0.3151,-0.3152,-0.3153,-0.3276,-0.328,-0.3283,-0.3287,-0.3297,-0.3294,-0.3291,-0.3195,0,0,-0.3282,-0.328,0,0,0,0,0,0,0,0,-0.2986,-0.2994,-0.3118,-0.3126,-0.3136,-0.3211,-0.3111,-0.3165,-0.3275,-0.3218,-0.3285,-0.3289,-0.326,-0.326,-0.3263,-0.3196,-0.3196,-0.3281,-0.3279,-0.3278,-0.3277,0,0,0,0,0,0,0,-0.2981,-0.299,-0.3084,-0.312,-0.3131,-0.315,-0.3163,-0.3122,-0.321,-0.3223,-0.3234,-0.3254,-0.3264,-0.3266,-0.3264,-0.3197,-0.3281,-0.3279,-0.3277,-0.3275,-0.3242,-0.3242,0,0,0,0,0,0,-0.298,-0.2985,-0.3081,-0.3087,-0.3076,-0.315,-0.3164,-0.3178,-0.3213,-0.3224,-0.3251,-0.326,-0.3269,-0.3268,-0.3265,-0.3286,-0.3278,-0.3275,-0.3273,-0.3241,-0.3242,-0.3243,0,0,0,0,0,0,-0.2976,-0.2986,-0.3077,-0.3044,-0.3058,-0.3149,-0.3162,-0.3178,-0.3211,-0.3236,-0.3245,-0.3273,-0.3272,-0.3269,-0.3282,-0.3282,-0.3274,-0.3271,-0.3239,-0.3241,-0.3242,-0.3241,0,0,0,0,0,0,-0.2972,-0.2984,-0.3006,-0.3044,-0.306,-0.3112,-0.316,-0.3177,-0.3219,-0.3232,-0.3256,-0.326,-0.3275,-0.3287,-0.3279,-0.3278,-0.3268,-0.3238,-0.324,-0.3242,-0.324,-0.3243,-0.3245,0,0,0,0,0,-0.2966,-0.2993,-0.3006,-0.3019,-0.3083,-0.3113,-0.3122,-0.3195,-0.3216,-0.3235,-0.3266,-0.3261,-0.3294,-0.3284,-0.3275,-0.3273,-0.3237,-0.324,-0.3242,-0.3239,-0.3242,-0.3245,0,0,0,0,0,0,-0.2949,-0.3009,-0.3025,-0.3068,-0.3097,-0.3138,-0.3162,-0.319,-0.3224,-0.3244,-0.3255,-0.3261,-0.3282,-0.3271,-0.326,-0.3275,-0.3269,-0.3269,-0.3271,-0.3273,-0.3275,-0.3269,-0.3266,0,0,0,0,0,-0.2948,-0.2981,-0.3027,-0.3053,-0.3066,-0.3102,-0.3127,-0.3174,-0.3204,-0.3226,-0.324,-0.3259,-0.3272,-0.3272,-0.3285,-0.3258,-0.3206,-0.326,-0.3262,-0.3264,-0.3257,-0.3176,-0.3168,-0.325,-0.325,-0.325,0,0,-0.2958,-0.2981,-0.3011,-0.3051,-0.3069,-0.3099,-0.3126,-0.3169,-0.3203,-0.3212,-0.3252,-0.3264,-0.3273,-0.3286,-0.3291,-0.3278,-0.3213,-0.3267,-0.3268,-0.3259,-0.3177,-0.3168,-0.316,-0.3251,-0.3251,-0.3251,0,0,-0.2964,-0.2992,-0.3022,-0.3049,-0.3091,-0.3108,-0.3119,-0.3165,-0.3201,-0.3228,-0.3259,-0.3272,-0.3278,-0.3291,-0.3294,-0.33,-0.3237,-0.331,-0.3295,-0.3216,-0.3208,-0.32,-0.311,-0.3094,-0.3297,-0.3298,-0.3298,0,-0.2966,-0.3003,-0.3032,-0.3058,-0.3081,-0.3108,-0.3135,-0.3166,-0.3218,-0.3225,-0.3256,-0.3264,-0.3281,-0.327,-0.3305,-0.3301,-0.324,-0.328,-0.3214,-0.3205,-0.3197,-0.3107,-0.3089,-0.3298,-0.3298,-0.3298,-0.3298,0,-0.2993,-0.3031,-0.3038,-0.3076,-0.3103,-0.3127,-0.3172,-0.3202,-0.3228,-0.3247,-0.3258,-0.3272,-0.3271,-0.3284,-0.3303,-0.3257,-0.3227,-0.3232,-0.3197,-0.3188,-0.3095,-0.3076,-0.3298,-0.3298,-0.3298,-0.3298,0,0,-0.2942,-0.3043,-0.3039,-0.3062,-0.3117,-0.3127,-0.3179,-0.3204,-0.3208,-0.325,-0.3227,-0.3274,-0.326,-0.3263,-0.3264,-0.321,-0.3115,-0.3199,-0.3195,-0.3091,-0.2916,-0.288,-0.2856,-0.3094,-0.3092,-0.3089,-0.2869,0,-0.2934,-0.2984,-0.3041,-0.3076,-0.3097,-0.315,-0.3176,-0.3213,-0.323,-0.3215,-0.3217,-0.3202,-0.3254,-0.3235,-0.3196,-0.314,-0.3067,-0.3173,-0.2958,-0.2951,-0.2904,-0.2834,-0.2662,-0.2449,-0.285,-0.2847,-0.2845,0,-0.2913,-0.295,-0.2995,-0.306,-0.3069,-0.3097,-0.3111,-0.3151,-0.3157,-0.3168,-0.3154,-0.3143,-0.3097,-0.3128,-0.3,-0.3059,-0.2992,-0.2941,-0.293,-0.2883,-0.288,-0.2529,-0.24,-0.2813,-0.2815,-0.2817,-0.282,0,-0.2815,-0.2899,-0.2923,-0.2951,-0.3037,-0.3058,-0.3091,-0.3121,-0.3131,-0.3114,-0.3084,-0.3044,-0.2988,-0.2918,-0.2862,-0.2909,-0.2686,-0.2729,-0.262,-0.2616,-0.2421,-0.2405,-0.2603,-0.2603,-0.2604,-0.2604,-0.2605,0,-0.276,-0.2772,-0.288,-0.2896,-0.2895,-0.2989,-0.2981,-0.3018,-0.3037,-0.2994,-0.3034,-0.2962,-0.293,-0.2824,-0.2788,-0.2635,-0.2618,-0.2587,-0.2547,-0.2419,-0.2406,-0.27,-0.2714,-0.2596,-0.2598,-0.2599,-0.2601,0,-0.2638,-0.2722,-0.2747,-0.2838,-0.2853,-0.285,-0.2919,-0.2914,-0.2953,-0.289,-0.2875,-0.2854,-0.2722,-0.267,-0.2521,-0.251,-0.2389,-0.2337,-0.2193,-0.2142,-0.2387,-0.2405,-0.2177,-0.2174,-0.2171,-0.2169,-0.2167,0,-0.2582,-0.2587,-0.2665,-0.2668,-0.2705,-0.2732,-0.2743,-0.2839,-0.2836,-0.2806,-0.2746,-0.2637,-0.2532,-0.2331,-0.2254,-0.2124,-0.2233,-0.1923,-0.2009,-0.2354,-0.2338,-0.236,-0.2381,-0.1728,-0.1723,-0.1719,-0.1715,0,-0.2456,-0.2485,-0.251,-0.2514,-0.2531,-0.2546,-0.2578,-0.2534,-0.2607,-0.2555,-0.2449,-0.2371,-0.2242,-0.2041,-0.1928,-0.1851,-0.1947,-0.1834,-0.2148,-0.1908,-0.1925,-0.1914,-0.1948,-0.1676,-0.168,-0.1683,-0.1685,-0.1686,-0.2337,-0.2316,-0.235,-0.2322,-0.2348,-0.2295,-0.2188,-0.2228,-0.2143,-0.2001,-0.2113,-0.1947,-0.1953,-0.1673,-0.1592,-0.1537,-0.1679,-0.1627,-0.1642,-0.1661,-0.1693,-0.171,-0.1423,-0.1425,-0.1427,-0.1429,-0.1431,0,-0.2158,-0.2158,-0.2149,-0.2087,-0.1989,-0.2101,-0.2022,-0.1846,-0.1629,-0.1676,-0.1601,-0.1366,-0.1316,-0.1335,-0.1206,-0.1226,-0.1226,-0.1179,-0.118,-0.1217,-0.1251,-0.1267,-0.088,-0.0879,-0.0878,-0.0877,0,0,-0.2077,-0.1991,-0.1979,-0.1735,-0.168,-0.1505,-0.1395,-0.1168,-0.1112,-0.0884,-0.0876,-0.1114,-0.1216,-0.0997,-0.0995,-0.0912,-0.1041,-0.0861,-0.1291,-0.1319,-0.1351,-0.149,-0.1553,0,0,0,0,0]},{"header":{"parameterUnit":"m.s-1","parameterCategory":2,"la1":30.2991,"la2":30.254,"lo1":-89.0895,"lo2":-89.0444,"dx":0.0017,"dy":0.0017,"nx":28,"ny":28,"refTime":"2023-01-27T15:00:00:Z","depth":"2","parameterNumber":3,"parameterNumberName":"V-component_of_CURRENTS"},"data":[0,0,0,0,0,0,0,0,0,0,0,0,0,0,0,0,0,0,0,0,0,0,0,0,0,0,0,0,0,0,0,0,0,0,0,0,0,0,0,0,0,0,0,0,0,0,0,0,0,0,0,0,0,0,0,0,0,0,-0.01,-0.0097,0,0.0076,0.0078,0.0079,0.0219,0.0221,0.0224,0.0226,0.0359,0.0361,0.0362,0,0,0,0,0,0,0,0,0,0,0,0,0,-0.023,-0.023,-0.01,-0.0097,-0.0094,0.0076,0.0078,0.008,0.0219,0.0222,0.0224,0.0226,0.0359,0.0361,0.0363,0,0,0,0,0,0,0,0,0,0,0,0,0,-0.0133,-0.0229,-0.01,0.0002,0.0013,0.0076,0.0078,0.008,0.0218,0.0222,0.0225,0.0228,0.0358,0.036,0.0363,0.0315,0,0,0.037,0.0371,0,0,0,0,0,0,0,0,-0.0139,-0.013,-0.0016,-0.0005,0.0008,0.0136,0.0082,0.0159,0.0218,0.0132,0.0226,0.0229,0.0283,0.0292,0.0308,0.0321,0.0327,0.037,0.0372,0.0373,0.0374,0,0,0,0,0,0,0,-0.0146,-0.0136,-0.0038,-0.0013,0.0002,0.0069,0.0084,0.0097,0.0181,0.014,0.0153,0.0183,0.0289,0.0305,0.0312,0.0329,0.037,0.0372,0.0374,0.0375,0.0447,0.0448,0,0,0,0,0,0,-0.0161,-0.0143,-0.0043,-0.0032,-0.0051,0.0069,0.0086,0.0085,0.0182,0.0203,0.0181,0.0189,0.0299,0.0309,0.0317,0.0355,0.0373,0.0375,0.0377,0.0447,0.0448,0.0448,0,0,0,0,0,0,-0.0165,-0.0155,-0.005,-0.0075,-0.0056,0.0068,0.0066,0.0087,0.012,0.0215,0.0234,0.0195,0.0302,0.0314,0.0353,0.0358,0.0376,0.0378,0.0446,0.0447,0.0448,0.0373,0,0,0,0,0,0,-0.017,-0.0159,-0.0166,-0.0077,-0.0055,-0.0014,0.0065,0.0089,0.0138,0.0151,0.0233,0.0248,0.0306,0.0349,0.0355,0.0362,0.038,0.0446,0.0447,0.0448,0.0375,0.0371,0.0368,0,0,0,0,0,-0.0176,-0.019,-0.0169,-0.0155,-0.007,-0.0014,0.0002,0.0097,0.0135,0.0138,0.0208,0.0247,0.0361,0.035,0.0357,0.0365,0.0445,0.0446,0.0448,0.0376,0.0372,0.0368,0,0,0,0,0,0,-0.0245,-0.0174,-0.0148,-0.014,-0.0084,0.0013,0.003,0.0083,0.0137,0.0152,0.0234,0.0253,0.0297,0.0333,0.0319,0.0393,0.0415,0.0417,0.0358,0.0354,0.0351,0.0344,0.0382,0,0,0,0,0,-0.027,-0.0268,-0.0188,-0.0185,-0.0164,-0.0079,-0.0044,0.0015,0.0082,0.011,0.0169,0.0237,0.03,0.0329,0.0379,0.0393,0.0446,0.0411,0.0408,0.0404,0.0406,0.0503,0.0508,0.0452,0.0452,0.0452,0,0,-0.029,-0.0256,-0.0249,-0.02,-0.0155,-0.0131,-0.0053,-0.001,0.0024,0.0109,0.0152,0.0215,0.0302,0.0345,0.0367,0.0378,0.0442,0.0406,0.0402,0.0406,0.0505,0.051,0.0515,0.0452,0.0452,0.0452,0,0,-0.0332,-0.0314,-0.0322,-0.0288,-0.0223,-0.0172,-0.0167,-0.0084,-0.0035,0.0003,0.0097,0.0165,0.0225,0.0313,0.0361,0.036,0.042,0.0373,0.0347,0.044,0.0446,0.0451,0.0495,0.0506,0.0372,0.0372,0.0372,0,-0.0361,-0.0364,-0.0314,-0.0312,-0.028,-0.02,-0.0193,-0.0142,-0.0052,-0.0007,0.0007,0.0156,0.0219,0.032,0.0332,0.0352,0.0398,0.0351,0.0435,0.0442,0.0449,0.0493,0.0505,0.0368,0.0369,0.0369,0.037,0,-0.0402,-0.04,-0.0407,-0.0382,-0.0347,-0.0334,-0.0252,-0.0212,-0.0157,-0.0086,0.0006,0.0095,0.0199,0.0226,0.0276,0.0366,0.0377,0.0416,0.044,0.045,0.0496,0.051,0.0363,0.0365,0.0366,0.0367,0,0,-0.048,-0.0443,-0.0448,-0.0436,-0.0383,-0.0354,-0.031,-0.0229,-0.0167,-0.0105,-0.0028,0.0079,0.0142,0.0203,0.0281,0.0354,0.043,0.0395,0.0401,0.0427,0.0603,0.0546,0.0557,0.0484,0.0487,0.0489,0.0604,0,-0.053,-0.0546,-0.0505,-0.0503,-0.0498,-0.0411,-0.0369,-0.028,-0.0194,-0.0106,0.0001,0.0096,0.0132,0.0191,0.0266,0.0413,0.0468,0.0393,0.0601,0.0606,0.0547,0.0572,0.0502,0.0593,0.0618,0.062,0.0622,0,-0.0588,-0.0585,-0.0603,-0.0542,-0.053,-0.0515,-0.0407,-0.0351,-0.0204,-0.0132,-0.0024,0.0072,0.0204,0.022,0.0436,0.0387,0.0479,0.0565,0.0573,0.0559,0.0577,0.0597,0.0619,0.0646,0.0644,0.0643,0.0641,0,-0.0666,-0.0647,-0.0664,-0.0652,-0.0578,-0.0553,-0.0503,-0.0366,-0.0281,-0.0138,-0.0057,0.0091,0.0196,0.0328,0.0482,0.0484,0.0688,0.0728,0.075,0.0745,0.0746,0.0737,0.0856,0.0856,0.0856,0.0856,0.0855,0,-0.0736,-0.0741,-0.0704,-0.0711,-0.0694,-0.0619,-0.0553,-0.0467,-0.0322,-0.0213,-0.0078,0.0035,0.0235,0.0374,0.0485,0.0643,0.0698,0.0747,0.0782,0.0713,0.07,0.0802,0.0794,0.086,0.0859,0.0858,0.0857,0,-0.0811,-0.0798,-0.0801,-0.0752,-0.0734,-0.0721,-0.0598,-0.0513,-0.0387,-0.0239,-0.0191,0.0031,0.021,0.0361,0.059,0.0668,0.0809,0.0837,0.0704,0.072,0.0803,0.079,0.0917,0.0916,0.0915,0.0915,0.0914,0,-0.0851,-0.0867,-0.0846,-0.0832,-0.0815,-0.0769,-0.0703,-0.057,-0.0457,-0.0238,-0.0157,0.0035,0.0176,0.044,0.0595,0.0753,0.0781,0.0786,0.0786,0.0793,0.0815,0.0803,0.0792,0.0755,0.0753,0.0752,0.075,0,-0.0904,-0.0905,-0.0904,-0.0877,-0.0838,-0.0768,-0.067,-0.0639,-0.0452,-0.0345,-0.0174,-0.0065,0.0216,0.0381,0.0565,0.0651,0.0755,0.0762,0.0855,0.0727,0.0644,0.0663,0.0658,0.0738,0.0739,0.074,0.0741,0.0741,-0.0935,-0.0948,-0.0929,-0.0889,-0.0834,-0.0769,-0.0795,-0.0672,-0.0589,-0.0434,-0.0259,-0.0094,0.0145,0.0375,0.0527,0.0661,0.0694,0.0737,0.0741,0.0747,0.0684,0.0603,0.0675,0.0676,0.0676,0.0677,0.0678,0,-0.0946,-0.0931,-0.0911,-0.0879,-0.082,-0.0768,-0.0739,-0.0746,-0.0739,-0.0521,-0.0374,-0.0139,0.0051,0.0281,0.0485,0.0635,0.0645,0.0647,0.0641,0.0651,0.066,0.0594,0.0561,0.0562,0.0562,0.0562,0,0,-0.0946,-0.0926,-0.0898,-0.0825,-0.0809,-0.0797,-0.0836,-0.0868,-0.0781,-0.0626,-0.0476,-0.0243,0.0037,0.0162,0.0347,0.0458,0.0513,0.0455,0.0524,0.0501,0.0509,0.0678,0.0581,0,0,0,0,0]}],[{"header":{"parameterUnit":"m.s-1","parameterCategory":2,"la1":30.2991,"la2":30.254,"lo1":-89.0895,"lo2":-89.0444,"dx":0.0017,"dy":0.0017,"nx":28,"ny":28,"refTime":"2023-01-27T15:00:00:Z","depth":"4","parameterNumber":2,"parameterNumberName":"U-component_of_CURRENTS"},"data":[0,0,0,0,0,0,0,0,0,0,0,0,0,0,0,0,0,0,0,0,0,0,0,0,0,0,0,0,0,0,0,0,0,0,0,0,0,0,0,0,0,0,0,0,0,0,0,0,0,0,0,0,0,0,0,0,0,0,-0.1103,-0.1105,0,-0.1179,-0.1178,-0.1178,-0.1049,-0.1046,-0.1043,-0.104,-0.1155,-0.1161,-0.1167,0,0,0,0,0,0,0,0,0,0,0,0,0,-0.0927,-0.0929,-0.1102,-0.1105,-0.1107,-0.1179,-0.1178,-0.1178,-0.1049,-0.1046,-0.1042,-0.1038,-0.1153,-0.116,-0.1167,0,0,0,0,0,0,0,0,0,0,0,0,0,-0.0989,-0.093,-0.1102,-0.1062,-0.106,-0.1179,-0.1178,-0.1178,-0.105,-0.1046,-0.1041,-0.1037,-0.1151,-0.1159,-0.1168,-0.1314,0,0,-0.1195,-0.1199,0,0,0,0,0,0,0,0,-0.0986,-0.0994,-0.1066,-0.1065,-0.1064,-0.1112,-0.116,-0.1231,-0.1051,-0.1039,-0.104,-0.1034,-0.1158,-0.1165,-0.1168,-0.132,-0.1325,-0.1196,-0.1201,-0.1205,-0.1208,0,0,0,0,0,0,0,-0.0981,-0.0991,-0.1118,-0.1069,-0.1068,-0.107,-0.1071,-0.1171,-0.1112,-0.1039,-0.1034,-0.1067,-0.1154,-0.116,-0.1171,-0.1326,-0.1196,-0.1204,-0.1209,-0.1212,-0.1512,-0.1515,0,0,0,0,0,0,-0.1003,-0.0987,-0.1116,-0.1122,-0.1029,-0.1077,-0.1078,-0.1089,-0.111,-0.1113,-0.1071,-0.1061,-0.1147,-0.116,-0.1175,-0.1317,-0.1205,-0.1213,-0.1218,-0.151,-0.1513,-0.1516,0,0,0,0,0,0,-0.0999,-0.1013,-0.1113,-0.1068,-0.1083,-0.1086,-0.1099,-0.1094,-0.1135,-0.1136,-0.1135,-0.1123,-0.1144,-0.1162,-0.1284,-0.1321,-0.1217,-0.1225,-0.1507,-0.1511,-0.1514,-0.1624,0,0,0,0,0,0,-0.0993,-0.101,-0.1051,-0.1069,-0.1087,-0.1173,-0.1105,-0.1099,-0.1167,-0.1155,-0.1183,-0.1184,-0.1142,-0.1271,-0.1292,-0.1332,-0.1232,-0.1503,-0.1508,-0.1513,-0.1617,-0.1631,-0.1643,0,0,0,0,0,-0.0986,-0.1039,-0.1052,-0.107,-0.1133,-0.1177,-0.1184,-0.1161,-0.1176,-0.1185,-0.1225,-0.1185,-0.1313,-0.1284,-0.1307,-0.1349,-0.1501,-0.1507,-0.1513,-0.1611,-0.1628,-0.1643,0,0,0,0,0,0,-0.0986,-0.1034,-0.1046,-0.1113,-0.1149,-0.1159,-0.1186,-0.1221,-0.1266,-0.1265,-0.127,-0.1277,-0.1386,-0.1378,-0.1344,-0.1444,-0.1384,-0.1396,-0.145,-0.1467,-0.148,-0.1402,-0.124,0,0,0,0,0,-0.1018,-0.1049,-0.1105,-0.1154,-0.1177,-0.1212,-0.1248,-0.1244,-0.1286,-0.1299,-0.1345,-0.138,-0.1431,-0.1458,-0.1498,-0.1606,-0.1545,-0.1631,-0.1644,-0.1655,-0.1607,-0.1582,-0.1587,-0.1535,-0.1535,-0.1535,0,0,-0.1025,-0.1067,-0.1081,-0.1157,-0.1174,-0.1217,-0.1214,-0.1266,-0.1297,-0.132,-0.1401,-0.1464,-0.1479,-0.1551,-0.1595,-0.1548,-0.1648,-0.1663,-0.1672,-0.1616,-0.1589,-0.1593,-0.1597,-0.1539,-0.1539,-0.1538,0,0,-0.1048,-0.1097,-0.1128,-0.1167,-0.1235,-0.1255,-0.1297,-0.1361,-0.1364,-0.1487,-0.149,-0.1568,-0.1687,-0.1657,-0.1668,-0.1796,-0.1737,-0.1838,-0.1829,-0.1809,-0.1811,-0.1812,-0.1771,-0.1767,-0.1821,-0.1821,-0.1821,0,-0.107,-0.1109,-0.1148,-0.1196,-0.1233,-0.1286,-0.1331,-0.1358,-0.1461,-0.1496,-0.1508,-0.1673,-0.17,-0.1751,-0.1767,-0.1818,-0.1802,-0.1772,-0.1822,-0.1821,-0.1821,-0.1777,-0.1772,-0.1827,-0.1827,-0.1826,-0.1825,0,-0.1099,-0.1149,-0.1169,-0.1232,-0.1286,-0.1324,-0.1379,-0.144,-0.1508,-0.1555,-0.1666,-0.1714,-0.1791,-0.1824,-0.1836,-0.1867,-0.1859,-0.1861,-0.1772,-0.1832,-0.1784,-0.1776,-0.1836,-0.1834,-0.1832,-0.183,0,0,-0.1096,-0.117,-0.1186,-0.1206,-0.1304,-0.1339,-0.1403,-0.147,-0.1509,-0.1619,-0.1668,-0.1771,-0.1834,-0.1846,-0.189,-0.1855,-0.186,-0.1862,-0.1858,-0.1802,-0.1817,-0.1754,-0.1738,-0.1897,-0.1896,-0.1895,-0.1795,0,-0.1104,-0.1181,-0.1224,-0.1284,-0.132,-0.1376,-0.1423,-0.15,-0.1567,-0.163,-0.1682,-0.1769,-0.183,-0.1887,-0.1879,-0.1851,-0.1842,-0.1885,-0.178,-0.1775,-0.1696,-0.1727,-0.1891,-0.1789,-0.1787,-0.1785,-0.1784,0,-0.1123,-0.117,-0.1239,-0.1288,-0.1307,-0.1371,-0.1444,-0.149,-0.1577,-0.1635,-0.1735,-0.1791,-0.1808,-0.1842,-0.1807,-0.1848,-0.1849,-0.1812,-0.1808,-0.1684,-0.1695,-0.171,-0.1769,-0.177,-0.1771,-0.1772,-0.1773,0,-0.1093,-0.1172,-0.1221,-0.1246,-0.1329,-0.1375,-0.1432,-0.1529,-0.1527,-0.1658,-0.1682,-0.1757,-0.1768,-0.1769,-0.1758,-0.1789,-0.1673,-0.1701,-0.1644,-0.164,-0.1675,-0.1674,-0.168,-0.168,-0.168,-0.168,-0.1681,0,-0.1071,-0.1104,-0.122,-0.1242,-0.129,-0.1377,-0.141,-0.1495,-0.1545,-0.1523,-0.1703,-0.169,-0.1751,-0.1717,-0.1721,-0.1642,-0.1664,-0.1613,-0.1602,-0.1732,-0.1738,-0.1671,-0.1671,-0.1677,-0.1677,-0.1678,-0.1679,0,-0.1013,-0.1087,-0.113,-0.1236,-0.1279,-0.1325,-0.137,-0.1335,-0.1476,-0.1441,-0.1477,-0.1595,-0.1587,-0.1619,-0.1577,-0.1566,-0.1507,-0.1501,-0.1612,-0.1615,-0.1493,-0.15,-0.1376,-0.1372,-0.137,-0.1367,-0.1366,0,-0.0982,-0.1011,-0.1121,-0.1116,-0.1168,-0.1227,-0.1203,-0.1312,-0.1262,-0.1351,-0.1291,-0.1362,-0.1428,-0.1321,-0.1409,-0.1405,-0.1436,-0.1395,-0.146,-0.1455,-0.1458,-0.147,-0.1481,-0.1361,-0.136,-0.136,-0.1359,0,-0.0895,-0.0951,-0.0963,-0.0976,-0.0977,-0.0931,-0.0942,-0.0915,-0.0974,-0.1088,-0.1093,-0.1158,-0.1164,-0.1229,-0.1266,-0.1273,-0.1392,-0.1366,-0.1373,-0.1434,-0.1436,-0.1444,-0.1458,-0.1349,-0.1351,-0.1352,-0.1352,0,-0.0804,-0.0779,-0.0787,-0.0774,-0.0719,-0.0616,-0.0691,-0.0643,-0.065,-0.0802,-0.0789,-0.095,-0.1077,-0.1159,-0.1169,-0.1191,-0.1199,-0.117,-0.1187,-0.1199,-0.1207,-0.1188,-0.0983,0,0,0,0,0,-0.0695,-0.0607,-0.0562,-0.0503,-0.0421,-0.0417,-0.0433,-0.0504,-0.0616,-0.0559,-0.0685,-0.0719,-0.084,-0.0965,-0.096,-0.1096,-0.1182,-0.1086,-0.1149,-0.1296,-0.1307,-0.1345,0,0,0,0,0,0,-0.0588,-0.0529,-0.0488,-0.0235,-0.0154,-0.0049,-0.0069,-0.0191,-0.0216,-0.0394,-0.0484,-0.0639,-0.0787,-0.0801,-0.0925,-0.0956,-0.0976,-0.1206,-0.1204,-0.129,-0.13,-0.1309,-0.1351,0,0,0,0,0]},{"header":{"parameterUnit":"m.s-1","parameterCategory":2,"la1":30.2991,"la2":30.254,"lo1":-89.0895,"lo2":-89.0444,"dx":0.0017,"dy":0.0017,"nx":28,"ny":28,"refTime":"2023-01-27T15:00:00:Z","depth":"4","parameterNumber":3,"parameterNumberName":"V-component_of_CURRENTS"},"data":[0,0,0,0,0,0,0,0,0,0,0,0,0,0,0,0,0,0,0,0,0,0,0,0,0,0,0,0,0,0,0,0,0,0,0,0,0,0,0,0,0,0,0,0,0,0,0,0,0,0,0,0,0,0,0,0,0,0,-0.0402,-0.0402,0,-0.0437,-0.0438,-0.044,-0.0554,-0.0555,-0.0557,-0.0558,-0.0497,-0.0494,-0.0492,0,0,0,0,0,0,0,0,0,0,0,0,0,-0.0431,-0.0431,-0.0402,-0.0402,-0.0401,-0.0437,-0.0438,-0.044,-0.0554,-0.0556,-0.0557,-0.0558,-0.0498,-0.0495,-0.0491,0,0,0,0,0,0,0,0,0,0,0,0,0,-0.0451,-0.0431,-0.0403,-0.0451,-0.0455,-0.0436,-0.0439,-0.0441,-0.0554,-0.0556,-0.0557,-0.0559,-0.0499,-0.0495,-0.0491,-0.0428,0,0,-0.0478,-0.0476,0,0,0,0,0,0,0,0,-0.045,-0.0452,-0.0445,-0.0448,-0.0451,-0.0481,-0.0425,-0.0427,-0.0553,-0.0531,-0.0558,-0.056,-0.0472,-0.047,-0.0494,-0.0425,-0.0422,-0.0478,-0.0475,-0.0473,-0.0472,0,0,0,0,0,0,0,-0.0448,-0.045,-0.0431,-0.0443,-0.0447,-0.0468,-0.0475,-0.0428,-0.05,-0.0533,-0.0538,-0.0519,-0.0475,-0.0498,-0.0493,-0.0422,-0.0478,-0.0474,-0.0472,-0.047,-0.0378,-0.0378,0,0,0,0,0,0,-0.0413,-0.0449,-0.0429,-0.043,-0.0439,-0.0465,-0.0474,-0.0481,-0.0503,-0.0505,-0.0517,-0.0523,-0.0505,-0.0498,-0.0491,-0.0467,-0.0474,-0.047,-0.0467,-0.0378,-0.0378,-0.0378,0,0,0,0,0,0,-0.0414,-0.0412,-0.0428,-0.0428,-0.0429,-0.0462,-0.047,-0.048,-0.0496,-0.0489,-0.0492,-0.0518,-0.0506,-0.0497,-0.0455,-0.0463,-0.0468,-0.0464,-0.0378,-0.0378,-0.0378,-0.0385,0,0,0,0,0,0,-0.0415,-0.0413,-0.0417,-0.0426,-0.0427,-0.0416,-0.0467,-0.0479,-0.0474,-0.0484,-0.049,-0.0488,-0.0506,-0.0462,-0.0451,-0.0457,-0.0461,-0.0378,-0.0378,-0.0378,-0.0385,-0.0385,-0.0386,0,0,0,0,0,-0.0417,-0.0417,-0.0418,-0.0414,-0.0429,-0.0413,-0.0418,-0.0456,-0.0471,-0.0479,-0.0484,-0.0488,-0.0457,-0.0457,-0.0445,-0.045,-0.0378,-0.0378,-0.0378,-0.0384,-0.0385,-0.0386,0,0,0,0,0,0,-0.0429,-0.0427,-0.0429,-0.0428,-0.0412,-0.0427,-0.0435,-0.0436,-0.0449,-0.0464,-0.0462,-0.0459,-0.0433,-0.0428,-0.0428,-0.0428,-0.0426,-0.0424,-0.0435,-0.0436,-0.0436,-0.047,-0.0457,0,0,0,0,0,-0.0424,-0.0437,-0.0414,-0.0414,-0.0405,-0.0409,-0.0407,-0.0425,-0.0424,-0.0436,-0.0432,-0.0434,-0.0423,-0.0417,-0.0407,-0.0378,-0.036,-0.0383,-0.0384,-0.0384,-0.0405,-0.0374,-0.0373,-0.0378,-0.0378,-0.0378,0,0,-0.0428,-0.0424,-0.0433,-0.0417,-0.042,-0.0424,-0.042,-0.0415,-0.0439,-0.0416,-0.0445,-0.0416,-0.0412,-0.041,-0.0399,-0.0407,-0.0366,-0.0384,-0.0385,-0.0406,-0.0374,-0.0373,-0.0373,-0.0378,-0.0378,-0.0378,0,0,-0.0438,-0.0435,-0.045,-0.0444,-0.0425,-0.0427,-0.0411,-0.0409,-0.0436,-0.0427,-0.043,-0.041,-0.0388,-0.0407,-0.0408,-0.0394,-0.036,-0.0378,-0.0416,-0.0384,-0.0383,-0.0383,-0.0328,-0.0322,-0.0391,-0.0391,-0.0391,0,-0.044,-0.0457,-0.0445,-0.0454,-0.0457,-0.0423,-0.0436,-0.045,-0.0439,-0.0451,-0.0445,-0.0422,-0.0409,-0.0411,-0.0425,-0.0399,-0.0355,-0.0412,-0.0384,-0.0383,-0.0383,-0.0327,-0.0321,-0.0391,-0.0391,-0.0391,-0.0391,0,-0.0469,-0.0479,-0.0481,-0.0497,-0.0497,-0.0496,-0.0496,-0.0498,-0.05,-0.051,-0.0497,-0.0472,-0.0462,-0.0451,-0.0438,-0.0423,-0.0381,-0.0375,-0.0382,-0.0383,-0.0324,-0.0317,-0.0392,-0.0391,-0.0391,-0.0391,0,0,-0.0479,-0.05,-0.0503,-0.0525,-0.0524,-0.0529,-0.0555,-0.0565,-0.0583,-0.0571,-0.0587,-0.057,-0.0528,-0.0526,-0.0482,-0.0465,-0.041,-0.0417,-0.0415,-0.0363,-0.0302,-0.0257,-0.0245,-0.0379,-0.0379,-0.0379,-0.0251,0,-0.05,-0.054,-0.0544,-0.0584,-0.0602,-0.0597,-0.063,-0.0643,-0.0636,-0.0639,-0.0616,-0.0604,-0.0564,-0.0534,-0.0508,-0.044,-0.0397,-0.0443,-0.0312,-0.0308,-0.0268,-0.0239,-0.0378,-0.0246,-0.0245,-0.0244,-0.0243,0,-0.0528,-0.0551,-0.0603,-0.0644,-0.0653,-0.0679,-0.0712,-0.0731,-0.0729,-0.072,-0.0688,-0.0646,-0.0612,-0.0572,-0.0466,-0.0484,-0.0393,-0.0341,-0.0334,-0.0295,-0.0252,-0.0254,-0.0231,-0.0232,-0.0233,-0.0234,-0.0234,0,-0.0555,-0.0591,-0.0641,-0.0658,-0.0698,-0.0732,-0.0749,-0.0763,-0.0785,-0.0751,-0.0735,-0.0684,-0.0642,-0.0552,-0.0423,-0.0436,-0.0289,-0.03,-0.0168,-0.0163,-0.024,-0.0242,-0.0212,-0.0212,-0.0212,-0.0212,-0.0213,0,-0.0575,-0.0613,-0.0664,-0.0693,-0.0761,-0.0776,-0.0827,-0.0828,-0.0828,-0.0833,-0.0764,-0.0723,-0.0631,-0.0528,-0.0422,-0.0262,-0.0278,-0.0171,-0.0132,-0.024,-0.0244,-0.0232,-0.0236,-0.0208,-0.0209,-0.021,-0.021,0,-0.0595,-0.0626,-0.0688,-0.0749,-0.0778,-0.0829,-0.0884,-0.09,-0.0883,-0.0872,-0.0858,-0.0762,-0.0611,-0.0484,-0.0326,-0.0254,-0.0119,-0.0043,-0.0139,-0.0108,-0.0016,-0.0022,0.0075,0.0078,0.008,0.0082,0.0083,0,-0.0609,-0.0643,-0.0735,-0.0785,-0.0817,-0.0886,-0.0922,-0.0932,-0.0937,-0.0879,-0.0865,-0.0725,-0.063,-0.0362,-0.0244,-0.0029,0.0004,0.0064,-0.0016,-0.0017,0.0011,0.0002,-0.0007,0.0087,0.0087,0.0088,0.0088,0,-0.0628,-0.0668,-0.072,-0.0812,-0.0871,-0.0918,-0.0963,-0.0965,-0.0946,-0.0957,-0.0832,-0.069,-0.0505,-0.0334,-0.0138,0.0003,-0.0005,0.0086,0.0081,0.0006,-0.0002,0.0022,0.0011,0.0096,0.0095,0.0094,0.0094,0,-0.0646,-0.0686,-0.075,-0.0819,-0.0881,-0.0885,-0.0928,-0.091,-0.0908,-0.0855,-0.0816,-0.0616,-0.0545,-0.031,-0.0143,0.0011,0.0018,0.0019,0.0017,0.001,-0.0057,-0.0079,0.0032,0,0,0,0,0,-0.0651,-0.0677,-0.0747,-0.0787,-0.083,-0.0851,-0.0913,-0.0941,-0.0937,-0.0848,-0.0832,-0.0648,-0.0391,-0.0291,-0.0124,-0.0111,0.0044,0.0083,0.0044,0.0137,0.0129,0.0064,0,0,0,0,0,0,-0.0657,-0.0717,-0.0728,-0.0711,-0.072,-0.0741,-0.0766,-0.0785,-0.0748,-0.0751,-0.0611,-0.0608,-0.0354,-0.0447,-0.0105,-0.0066,-0.0076,0.018,0.0182,0.0142,0.0134,0.0127,0.0058,0,0,0,0,0]}]]